Tracking 31027 objects as of 19-Jul-2025
HD Live streaming from Space Station
objects crossing your sky now

CZ-6A DEB

Track CZ-6A DEB now!
10-day predictions


NORAD ID: 54352
Int'l Code: 2022-151CX
Perigee: 551.6 km
Apogee: 696.1 km
Inclination: 99.0 °
Period: 97.0 minutes
Semi major axis: 6994 km
RCS: Unknown
Launch date: November 11, 2022
Source: People's Republic of China (PRC)
Launch site: Taiyaun Space Center, China (TSC)

Note: This is SATELLITE DEBRIS
Your satellite tracking list
Your tracking list is empty




NASA's NSSDC Master Catalog

Two Line Element Set (TLE):
1 54352U 22151CX  25199.75730316  .00020269  00000-0  22166-2 0  9996
2 54352  99.0284 307.5503 0103281 227.2081 132.0411 14.84008669142064
Source of the keplerian elements: AFSPC